星链-31084 (STARLINK-31084 )

导读

STARLINK-31084是美国太空探索技术公司SpaceX星链星座的卫星,由美国于2023年12月23日发射升空,属于星链互联网卫星组网的组成部分。星链项目旨在构建全球卫星互联网,该卫星入轨后为全球尤其是偏远区域提供高速互联网接入服务,进一步扩充了星链星座的规模,提升全球网络覆盖能力。

Basic Information
目录编号:
58630
目录名称:
STARLINK-31084
国际标识:
2023-203N
轨道中心:
EARTH
卫星名称:
星链-31084
卫星全名:
星链-31084 (STARLINK-31084 )
卫星状态:
在轨 (已飞行986 天)
发射日期:
2023-12-23 UTC
国别 :
美国 (US)
星等 :
--
Orbit Information
数据来源 国际轨道数据
星历时间: 2026-09-04T10:10:08+0800
6小时前
查看轨道信息
半长轴: 6861.178km
偏心率: 0.0000885
轨道倾角: 43.001°
近地点辐角 270.237°
升交点赤经 143.176°
平近点角 89.838°
近地点: 482.433km
远地点: 483.649km
周期: 94.267分钟
每日圈数: 15.27583
Detailed Information
固有亮度:
5
最大亮度:
0.3
卫星平台:
Starlink v2.0 mini
覆盖范围:
全球
运营商:
太空探索技术公司
运营商所在国:
美国
制造商(研发单位):
太空探索技术公司
制造商所在国:
美国
使用方式:
暂无
Satellite Introduction
星链(Starlink)计划是由太空探索技术公司(SpaceX)提出的一个巨型低轨卫星互联网星座项目,计划在2019年至2024年间在太空搭建由约1.2万颗卫星组成的“星链”网络,其中1584颗将部署在地球上空550千米处的近地轨道,并从2020年开始工作。该卫星仍在工作。
2D Orbit Map
3D Orbit Map
Orbit Altitude Analysis Chart
Orbit Inclination Analysis Chart
Orbit Comprehensive Analysis Chart
View Comprehensive Chart
Conjunction Data List
Event ID Objects TCA Miss Dist (km) Collision Risk Probability Collision Risk Index (CRI) Action
CDM_260906-011804-431005-863021
OBJECT A (44310)
2026-09-06T
01:18:50+0000
0.618 km
远距离
9.695999E-5 中风险 0.75